Satellite: NOAA-16
Catalog number: 26536
Epoch time:      11117.78791004
Element set:    0275
Inclination:      099.1440 deg
RA of node:       147.2973 deg
Eccentricity:    0.0010977
Arg of perigee:   169.9718 deg
Mean anomaly:     190.1676 deg
Mean motion:   14.12611099 rev/day
Decay rate:        4.0e-07 rev/day^2
Epoch rev:           54624
Checksum:              315

Satellite: NOAA-17
Catalog number: 27453
Epoch time:      11117.73575397
Element set:    0269
Inclination:      098.3835 deg
RA of node:       159.7502 deg
Eccentricity:    0.0010749
Arg of perigee:   299.5495 deg
Mean anomaly:     060.4630 deg
Mean motion:   14.24263169 rev/day
Decay rate:        6.6e-07 rev/day^2
Epoch rev:           45947
Checksum:              341

Satellite: NOAA-18
Catalog number: 28654
Epoch time:      11117.77011534
Element set:    0749
Inclination:      098.9918 deg
RA of node:       068.8045 deg
Eccentricity:    0.0013516
Arg of perigee:   246.2734 deg
Mean anomaly:     113.7020 deg
Mean motion:   14.11467379 rev/day
Decay rate:       4.98e-06 rev/day^2
Epoch rev:           30581
Checksum:              317

Satellite: NOAA-19
Catalog number: 33591
Epoch time:      11117.75624973
Element set:    0941
Inclination:      098.8235 deg
RA of node:       058.7654 deg
Eccentricity:    0.0014843
Arg of perigee:   116.9600 deg
Mean anomaly:     243.3112 deg
Mean motion:   14.11157611 rev/day
Decay rate:       3.22e-06 rev/day^2
Epoch rev:           11427
Checksum:              288

/EX
SB KEPS @ AMSAT  $ORB11118.M
Orbital Elements  11118.MISC

HR AMSAT ORBITAL ELEMENTS FOR MANNED AND MISCELLANEOUS SATELLITES
FROM WA5QGD FORT WORTH,TX April 28, 2011
Send Subscribe/unsubscribe to KEPS at http://www.amsat.org/mailman/listinfo/kep
BID: ORB11118.M
TO ALL RADIO AMATEURS BT

Satellite: HUBBLE
Catalog number: 20580
Epoch time:      11118.06210884
Element set:     753
Inclination:      028.4717 deg
RA of node:       343.8766 deg
Eccentricity:    0.0003309
Arg of perigee:   306.0738 deg
Mean anomaly:     053.9589 deg
Mean motion:   15.01312227 rev/day
Decay rate:      1.309e-05 rev/day^2
Epoch rev:           95211
Checksum:              281

Satellite: ISS
Catalog number: 25544
Epoch time:      11118.84018274
Element set:     266
Inclination:      051.6472 deg
RA of node:       054.1762 deg
Eccentricity:    0.0002845
Arg of perigee:   153.4725 deg
Mean anomaly:     303.6642 deg
Mean motion:   15.74233916 rev/day
Decay rate:     3.1309e-04 rev/day^2
Epoch rev:           71313
Checksum:              279

Satellite: CO-58
Catalog number: 28895
Epoch time:      11117.62763812
Element set:    0860
Inclination:      097.9737 deg
RA of node:       355.9511 deg
Eccentricity:    0.0018426
Arg of perigee:   023.1635 deg
Mean anomaly:     337.0401 deg
Mean motion:   14.60075490 rev/day
Decay rate:       4.89e-06 rev/day^2
Epoch rev:           29286
Checksum:              329

Satellite: FALCON
Catalog number: 30776
Epoch time:      11118.80635425
Element set:      74
Inclination:      035.4342 deg
RA of node:       287.2091 deg
Eccentricity:    0.0001748
Arg of perigee:   345.7040 deg
Mean anomaly:     014.3631 deg
Mean motion:   15.04483575 rev/day
Decay rate:      2.536e-05 rev/day^2
Epoch rev:           22760
Checksum:              273

Satellite: MAST
Catalog number: 31126
Epoch time:      11118.96061487
Element set:     145
Inclination:      097.9007 deg
RA of node:       148.9601 deg
Eccentricity:    0.0093979
Arg of perigee:   324.6714 deg
Mean anomaly:     034.8279 deg
Mean motion:   14.53728372 rev/day
Decay rate:       2.84e-06 rev/day^2
Epoch rev:           21393
Checksum:              317

Satellite: CAPE1
Catalog number: 31130
Epoch time:      11118.55642730
Element set:     162
Inclination:      097.9015 deg
RA of node:       145.4191 deg
Eccentricity:    0.0101948
Arg of perigee:   336.0196 deg
Mean anomaly:     023.6270 deg
Mean motion:   14.52364071 rev/day
Decay rate:       4.08e-06 rev/day^2
Epoch rev:           21343
Checksum:              256

Satellite: COMPASS
Catalog number: 32787
Epoch time:      11118.32860633
Element set:     971
Inclination:      097.8501 deg
RA of node:       183.0664 deg
Eccentricity:    0.0015674
Arg of perigee:   343.1319 deg
Mean anomaly:     016.9369 deg
Mean motion:   14.82333619 rev/day
Decay rate:      1.062e-05 rev/day^2
Epoch rev:           16217
Checksum:              300

Satellite: AAUSAT2
Catalog number: 32788
Epoch time:      11117.82601903
Element set:    0963
Inclination:      097.8502 deg
RA of node:       182.7806 deg
Eccentricity:    0.0014756
Arg of perigee:   345.5914 deg
Mean anomaly:     014.4846 deg
Mean motion:   14.82513747 rev/day
Decay rate:      1.598e-05 rev/day^2
Epoch rev:           16211
Checksum:              316

Satellite: DO-64
Catalog number: 32789
Epoch time:      11118.25559567
Element set:     978
Inclination:      097.8611 deg
RA of node:       184.1144 deg
Eccentricity:    0.0014706
Arg of perigee:   342.1914 deg
Mean anomaly:     017.8771 deg
Mean motion:   14.82919754 rev/day
Decay rate:      1.873e-05 rev/day^2
Epoch rev:           16218
Checksum:              343

